Buckhannon, WV

8:19 AM EDT on October 17, 2017 (GMT -0400)
Buckhannon

Weather History for KW22 - January, 2013

Change the Weather History Date:

Tuesday, January 15, 2013

  Actual Average (KCKB) Record (KCKB)
Temperature  
Mean Temperature 32 °F -  
Max Temperature 33 °F 38 °F 74 °F (1932)
Min Temperature 32 °F 19 °F -5 °F (1948)
Degree Days  
Heating Degree Days 32    
Moisture  
Dew Point 32 °F    
Average Humidity 100    
Maximum Humidity 100    
Minimum Humidity 93    
Precipitation  
Precipitation 0.90 in - - ()
Sea Level Pressure  
Sea Level Pressure 30.18 in    
Wind  
Wind Speed 5 mph (North)    
Max Wind Speed 10 mph    
Max Gust Speed 16 mph    
Visibility 4 miles    
Events Rain    
Averages and records for this station are not official NWS values.
T = Trace of Precipitation, MM = Missing Value Source: NWS Daily Summary

Daily Weather History Graph

Daily Weather History Graph

Search for Another Location

Airport or City:

Trip Planner

Search our weather history database for the weather conditions in past years. The results will help you decide how hot, cold, wet, or windy it might be!

Date:

Astronomy

Jan. 15, 2013 Rise Set
Actual Time 7:38 AM EST 5:23 PM EST
Civil Twilight 7:09 AM EST 5:52 PM EST
Nautical Twilight 6:36 AM EST 6:25 PM EST
Astronomical Twilight 6:04 AM EST 6:57 PM EST
Moon 9:45 AM EST (1/15) 10:08 PM EST (1/15)
Length of Visible Light 10h 43m
Length of Day
9h 44m
Waxing Crescent, 19% of the Moon is Illuminated
Jan 15
Waxing Crescent
Jan 18
First Quarter
Jan 26
Full
Feb 3
Last Quarter
Feb 10
New

Hourly Weather History & Observations

Time (EST) Temp. Windchill Dew Point Humidity Pressure Visibility Wind Dir Wind Speed Gust Speed Precip Events Conditions
12:15 AM 33.8 °F 26.4 °F 33.8 °F 100% 30.21 in 4.0 mi NNW 9.2 mph - N/A   Overcast
12:35 AM 33.8 °F 25.8 °F 33.8 °F 100% 30.21 in 1.5 mi North 10.4 mph 16.1 mph N/A   Overcast
12:55 AM 32.0 °F 24.8 °F 32.0 °F 100% 30.22 in 0.8 mi North 8.1 mph - N/A   Overcast
1:15 AM 32.0 °F 28.7 °F 32.0 °F 100% 30.22 in 2.0 mi East 3.5 mph - N/A   Overcast
1:35 AM 32.0 °F 27.5 °F 32.0 °F 100% 30.22 in 2.0 mi North 4.6 mph - N/A   Overcast
1:55 AM 32.0 °F - 32.0 °F 100% 30.22 in 2.5 mi Calm Calm - N/A   Overcast
2:15 AM 32.0 °F - 32.0 °F 100% 30.22 in 3.0 mi Calm Calm - N/A   Overcast
2:35 AM 33.8 °F - 33.8 °F 100% 30.22 in 5.0 mi Calm Calm - N/A   Overcast
3:15 AM 33.8 °F - 33.8 °F 100% 30.22 in 7.0 mi Calm Calm - N/A   Overcast
3:35 AM 33.8 °F - 33.8 °F 100% 30.22 in 4.0 mi Calm Calm - N/A   Overcast
3:55 AM 33.8 °F 30.8 °F 33.8 °F 100% 30.22 in 5.0 mi North 3.5 mph - N/A   Overcast
4:15 AM 33.8 °F 29.6 °F 33.8 °F 100% 30.22 in 4.0 mi North 4.6 mph - N/A   Overcast
4:55 AM 33.8 °F - 33.8 °F 100% 30.22 in 5.0 mi Calm Calm - N/A   Overcast
5:35 AM 33.8 °F - 33.8 °F 100% 30.23 in 5.0 mi Calm Calm - N/A   Overcast
5:55 AM 32.0 °F 24.8 °F 32.0 °F 100% 30.23 in 3.0 mi North 8.1 mph - N/A   Overcast
6:15 AM 32.0 °F 23.6 °F 32.0 °F 100% 30.23 in 3.0 mi North 10.4 mph - N/A   Overcast
6:35 AM 32.0 °F 26.4 °F 32.0 °F 100% 30.24 in 2.0 mi North 5.8 mph - N/A   Overcast
6:55 AM 32.0 °F 26.4 °F 32.0 °F 100% 30.26 in 2.5 mi North 5.8 mph - N/A   Overcast
7:15 AM 32.0 °F 26.4 °F 32.0 °F 100% 30.26 in 2.5 mi NNE 5.8 mph - N/A   Overcast
7:35 AM 32.0 °F 26.4 °F 32.0 °F 100% 30.26 in 2.0 mi North 5.8 mph - N/A   Overcast
7:55 AM 32.0 °F 27.5 °F 32.0 °F 100% 30.28 in 1.2 mi North 4.6 mph - N/A   Overcast
8:15 AM 32.0 °F 27.5 °F 32.0 °F 100% 30.29 in 1.5 mi North 4.6 mph - N/A   Overcast
8:35 AM 32.0 °F 25.6 °F 32.0 °F 100% 30.30 in 1.0 mi North 6.9 mph - N/A Rain Light Rain
8:55 AM 32.0 °F 27.5 °F 32.0 °F 100% 30.30 in 1.2 mi North 4.6 mph - N/A   Overcast
9:15 AM 32.0 °F 26.4 °F 32.0 °F 100% 30.31 in 1.5 mi North 5.8 mph - N/A   Overcast
9:55 AM 32.0 °F 26.4 °F 32.0 °F 100% 30.30 in 1.2 mi North 5.8 mph - N/A   Overcast
10:15 AM 32.0 °F 27.5 °F 32.0 °F 100% 30.29 in 1.0 mi NE 4.6 mph - N/A   Overcast
10:35 AM 32.0 °F 27.5 °F 32.0 °F 100% 30.29 in 2.5 mi North 4.6 mph - N/A   Overcast
10:55 AM 32.0 °F 28.7 °F 32.0 °F 100% 30.29 in 3.0 mi NNE 3.5 mph - N/A   Overcast
11:15 AM 32.0 °F 26.4 °F 32.0 °F 100% 30.27 in 3.0 mi North 5.8 mph - N/A   Overcast
11:35 AM 32.0 °F 27.5 °F 32.0 °F 100% 30.25 in 3.0 mi North 4.6 mph - N/A   Overcast
11:55 AM 32.0 °F 26.4 °F 32.0 °F 100% 30.23 in 3.0 mi NE 5.8 mph - N/A   Overcast
12:15 PM 32.0 °F 24.8 °F 32.0 °F 100% 30.20 in 3.0 mi NE 8.1 mph - N/A   Overcast
12:35 PM 32.0 °F 27.5 °F 32.0 °F 100% 30.20 in 4.0 mi NNE 4.6 mph - N/A   Overcast
12:55 PM 33.8 °F - 33.8 °F 100% 30.18 in 5.0 mi Calm Calm - N/A   Overcast
1:15 PM 33.8 °F 27.7 °F 33.8 °F 100% 30.18 in 5.0 mi North 6.9 mph - N/A   Overcast
1:35 PM 33.8 °F 27.0 °F 33.8 °F 100% 30.16 in 7.0 mi North 8.1 mph - N/A   Overcast
1:55 PM 33.8 °F 27.0 °F 33.8 °F 100% 30.16 in 8.0 mi North 8.1 mph - N/A   Overcast
2:15 PM 33.8 °F 26.4 °F 32.0 °F 93% 30.16 in 8.0 mi North 9.2 mph - N/A   Overcast
2:55 PM 32.0 °F 27.5 °F 32.0 °F 100% 30.16 in 8.0 mi North 4.6 mph - N/A   Overcast
3:15 PM 32.0 °F 25.6 °F 32.0 °F 100% 30.14 in 9.0 mi North 6.9 mph - N/A   Overcast
3:35 PM 32.0 °F 24.8 °F 32.0 °F 100% 30.13 in 7.0 mi NNE 8.1 mph - N/A   Overcast
3:55 PM 32.0 °F 24.2 °F 32.0 °F 100% 30.14 in 5.0 mi North 9.2 mph - N/A   Overcast
4:15 PM 32.0 °F 26.4 °F 32.0 °F 100% 30.14 in 8.0 mi North 5.8 mph - N/A   Overcast
4:35 PM 32.0 °F 25.6 °F 32.0 °F 100% 30.13 in 9.0 mi NNE 6.9 mph - N/A   Unknown
4:55 PM 32.0 °F 23.6 °F 32.0 °F 100% 30.14 in 8.0 mi North 10.4 mph - N/A   Overcast
5:15 PM 32.0 °F 25.6 °F 32.0 °F 100% 30.13 in 7.0 mi NNE 6.9 mph - N/A   Overcast
5:35 PM 32.0 °F 27.5 °F 32.0 °F 100% 30.15 in 9.0 mi North 4.6 mph - N/A   Mostly Cloudy
5:55 PM 32.0 °F 27.5 °F 32.0 °F 100% 30.15 in 4.0 mi NNE 4.6 mph - N/A Rain Light Rain
6:15 PM 32.0 °F 26.4 °F 32.0 °F 100% 30.14 in 2.5 mi NNE 5.8 mph - 0.01 in Rain Light Rain
6:35 PM 32.0 °F 27.5 °F 32.0 °F 100% 30.15 in 2.5 mi North 4.6 mph - 0.04 in Rain Light Rain
6:55 PM 32.0 °F 26.4 °F 32.0 °F 100% 30.15 in 1.0 mi North 5.8 mph - 0.07 in Rain Rain
7:15 PM 32.0 °F 26.4 °F 32.0 °F 100% 30.15 in 2.0 mi North 5.8 mph - 0.04 in Rain Rain
7:55 PM 32.0 °F 27.5 °F 32.0 °F 100% 30.13 in 1.5 mi North 4.6 mph - 0.21 in Rain Rain
8:15 PM 32.0 °F 27.5 °F 32.0 °F 100% 30.12 in 1.5 mi North 4.6 mph - 0.05 in Rain Rain
8:35 PM 32.0 °F 28.7 °F 32.0 °F 100% 30.10 in 1.5 mi NNE 3.5 mph - 0.14 in Rain Rain
8:55 PM 32.0 °F - 32.0 °F 100% 30.10 in 1.5 mi Calm Calm - 0.20 in Rain Rain
9:15 PM 32.0 °F 27.5 °F 32.0 °F 100% 30.07 in 1.8 mi NE 4.6 mph - 0.04 in Rain Rain
9:35 PM 32.0 °F - 32.0 °F 100% 30.06 in 2.5 mi Calm Calm - 0.10 in   Overcast
9:55 PM 32.0 °F - 32.0 °F 100% 30.04 in 2.5 mi Calm Calm - 0.12 in Rain Light Rain
10:15 PM 32.0 °F 27.5 °F 32.0 °F 100% 30.03 in 0.5 mi North 4.6 mph - 0.03 in Rain Rain
10:35 PM 32.0 °F 28.7 °F 32.0 °F 100% 30.03 in 2.0 mi North 3.5 mph - 0.08 in Rain Light Rain
10:55 PM 32.0 °F 28.7 °F 32.0 °F 100% 30.02 in 1.2 mi NNE 3.5 mph - 0.14 in Rain Rain
11:15 PM 32.0 °F 27.5 °F 32.0 °F 100% 30.02 in 1.2 mi North 4.6 mph - 0.04 in Rain Rain
11:55 PM 32.0 °F - 32.0 °F 100% 30.01 in 0.5 mi Calm Calm - 0.16 in Rain Rain